Location: Mountain View
(37.3861°N, 122.0839°W)
Time: 15:20:19
(UTC-07:00)

Tiangong 2 - Visible Passes

Search period start: 18 October 2017 00:00
Search period end: 28 October 2017 00:00
Orbit: 388 x 392 km, 42.8° (Epoch: 18 October)

Date Brightness Start Highest point End Pass type
(mag) Time Alt. Az. Time Alt. Az. Time Alt. Az.
18 Oct 1.4 06:00:07 37° NW 06:01:08 61° NNE 06:04:18 10° ESE visible
19 Oct 3.9 05:05:11 19° E 05:05:11 19° E 05:06:17 10° E visible
19 Oct 1.7 06:37:32 13° W 06:40:05 42° SSW 06:43:08 10° SE visible
20 Oct 1.3 05:42:41 63° SE 05:42:41 63° SE 05:45:29 10° ESE visible
21 Oct 2.7 06:20:14 19° WSW 06:21:03 21° SW 06:23:34 10° SSE visible
22 Oct 3.7 05:25:31 16° SSE 05:25:31 16° SSE 05:26:18 10° SE visible
27 Oct 4.2 20:18:34 10° SSW 20:18:36 10° SSW 20:18:36 10° SSW visible
